Regional Weather Roundup
Issued by NWS Sioux Falls, SD

Home | Current Version | Previous Version | Graphics & Text | Print | Product List | Glossary On
Versions: 1 2 3 4 5 6 7 8 9 10 11 12 13 14 15 16 17 18 19 20 21 22 23 24 25 26 27 28 29 30 31 32 33 34 35 36 37 38 39 40 41 42 43 44 45 46 47 48 49 50
000
ASUS43 KFSD 040110
RWRFSD

WEATHER ROUNDUP FOR SE SOUTH DAKOTA/SW MINNESOTA/NW IOWA
NATIONAL WEATHER SERVICE SIOUX FALLS SD
800 PM CDT FRI JUL 03 2015

NOTE: "FAIR" INDICATES FEW OR NO CLOUDS BELOW 12,000 FEET WITH NO
SIGNIFICANT WEATHER AND OR OBSTRUCTIONS TO VISIBILITY.


SDZ038>040-050-052>070-040200-
SOUTHEAST SOUTH DAKOTA

CITY           SKY/WX    TMP DP  RH WIND       PRES   REMARKS
BROOKINGS      MOSUNNY   77  66  69 SW3       29.95S
CHAMBERLAIN    SUNNY     77  66  68 SE5       29.93S
HURON          MOSUNNY   78  66  66 S7        29.91F
MADISON        FAIR      75  66  73 SW6       29.95F
MITCHELL       SUNNY     77  67  71 SE7       29.94S
SIOUX FALLS    CLOUDY    76  64  66 CALM      29.95S
WINNER         FAIR      81  59  47 SE10      29.93F
YANKTON        SUNNY     75  63  64 CALM      29.93S
$$

MNZ071-072-080-081-089-090-097-098-040200-
SOUTHWEST MINNESOTA

CITY           SKY/WX    TMP DP  RH WIND       PRES   REMARKS
FAIRMONT       PTCLDY    75  54  46 CALM      29.94S
JACKSON        PTCLDY    73  59  60 SW5       29.96S
LUVERNE        MOSUNNY   77  63  61 SW3       29.96S
MARSHALL       MOSUNNY   79  64  61 S5        29.91S
MONTEVIDEO     MOSUNNY   81  66  61 CALM      29.91S
PIPESTONE      PTSUNNY   75  64  69 W5        29.95F
REDWOOD FALLS  PTCLDY    78  62  57 CALM      29.91S
TRACY          MOSUNNY   78  66  66 CALM      29.93F
WINDOM         PTCLDY    77  59  53 CALM      29.94S
WORTHINGTON    PTCLDY    73  59  60 SW7       29.96S
$$

IAZ001>003-012>014-020>022-031-032-NEZ013-014-SDZ071-040200-
NORTHWEST IOWA

CITY           SKY/WX    TMP DP  RH WIND       PRES   REMARKS
CHEROKEE       CLEAR     71  62  71 CALM      29.96S
DENISON        CLEAR     73  57  56 CALM      29.94F
ESTHERVILLE    PTCLDY    73  60  63 W3        29.95S
LE MARS        CLEAR     73  63  68 CALM      29.96S
ORANGE CITY    CLEAR     72  61  68 CALM      29.97R
SHELDON        PTCLDY    73  61  64 CALM      29.95S
SIOUX CITY     CLEAR     75  65  70 CALM      29.95S
SPENCER        PTCLDY    73  59  61 W5        29.96S
STORM LAKE     CLEAR     72  59  64 CALM      29.97S
$$

ABBREVIATIONS USED IN REMARKS
   TC - TEMPERATURE IN CELSIUS
  WCI - WIND CHILL INDEX
   HX - HEAT INDEX
  VSB - VISIBILITY




USA.gov is the U.S. government's official web portal to all federal, state and local government web resources and services.